Location: Newport
(44.6370°N, 124.0520°W)
Time: 12:47:30
(UTC-08:00)

N. Korean satellite - Pass Details

Date: 12 October 2017
Orbit: 461 x 513 km, 97.2° (Epoch: 16 December)

Event Time Altitude Azimuth Distance (km) Brightness Sun altitude
Rises 20:22:14 0° 210° (SSW) 2,552 10.5 -19.6°
Reaches altitude 10° 20:25:12 10° 238° (WSW) 1,665 9.9 -20.2°
Maximum altitude 20:27:02 13° 269° (W) 1,457 10.0 -20.5°
Drops below altitude 10° 20:28:52 10° 300° (WNW) 1,657 10.3 -20.8°
Sets 20:31:49 0° 328° (NNW) 2,530 10.8 -21.3°
